Marshalltown, IA

9:28 AM CST on December 07, 2016 (GMT -0600)
Marshalltown Municipal

Weather History for KMIW - November, 2013

Change the Weather History Date:

Saturday, November 16, 2013

  Actual Average Record
Temperature  
Mean Temperature 51 °F 36 °F  
Max Temperature 63 °F 46 °F 72 °F (2001)
Min Temperature 39 °F 26 °F 7 °F (2014)
Degree Days  
Heating Degree Days 14 29  
Month to date heating degree days 400 400  
Since 1 July heating degree days 949 1033  
Cooling Degree Days 0 0  
Month to date cooling degree days 0 0  
Year to date cooling degree days 872 728  
Growing Degree Days 2 (Base 50)    
Moisture  
Dew Point 48 °F    
Average Humidity 87    
Maximum Humidity 100    
Minimum Humidity 74    
Precipitation  
Precipitation 0.02 in 0.07 in 0.09 in (2015)
Month to date precipitation 0.93 1.57  
Sea Level Pressure  
Sea Level Pressure 29.49 in    
Wind  
Wind Speed 14 mph (South)    
Max Wind Speed 28 mph    
Max Gust Speed 33 mph    
Visibility 7 miles    
Events Rain    
T = Trace of Precipitation, MM = Missing Value Source: NWS Daily Summary

Daily Weather History Graph

Daily Weather History Graph

Search for Another Location

Airport or City:

Trip Planner

Search our weather history database for the weather conditions in past years. The results will help you decide how hot, cold, wet, or windy it might be!

Date:

Astronomy

Nov. 16, 2013 Rise Set
Actual Time 7:03 AM CST 4:49 PM CST
Civil Twilight 6:33 AM CST 5:19 PM CST
Nautical Twilight 5:59 AM CST 5:53 PM CST
Astronomical Twilight 5:26 AM CST 6:26 PM CST
Moon 4:25 PM CST (11/16) 5:59 AM CST (11/16)
Length of Visible Light 10h 46m
Length of Day
9h 45m
Waxing Gibbous, 99% of the Moon is Illuminated
Nov 16
Waxing Gibbous
Nov 17
Full
Nov 25
Last Quarter
Dec 2
New
Dec 9
First Quarter

Hourly Weather History & Observations

Time (CST) Temp. Windchill Dew Point Humidity Pressure Visibility Wind Dir Wind Speed Gust Speed Precip Events Conditions
12:53 AM 41.0 °F 34.7 °F 36.0 °F 82% 29.72 in 10.0 mi SSE 10.4 mph - N/A   Clear
1:53 AM 42.1 °F 34.5 °F 37.0 °F 82% 29.70 in 10.0 mi SSE 15.0 mph - N/A   Clear
2:53 AM 41.0 °F 33.1 °F 37.9 °F 89% 29.68 in 10.0 mi SSE 15.0 mph - N/A   Clear
3:51 AM 42.8 °F 35.4 °F 39.2 °F 87% 29.64 in 10.0 mi SSE 15.0 mph - N/A   Mostly Cloudy
3:53 AM 42.1 °F 34.5 °F 39.9 °F 92% 29.65 in 10.0 mi SSE 15.0 mph - N/A   Mostly Cloudy
4:53 AM 45.0 °F 38.2 °F 42.1 °F 90% 29.63 in 9.0 mi SSE 15.0 mph - N/A   Overcast
5:53 AM 46.0 °F 40.2 °F 43.0 °F 89% 29.61 in 9.0 mi SSE 12.7 mph - N/A   Overcast
6:53 AM 46.9 °F - 44.1 °F 90% 29.59 in 9.0 mi SSE 13.8 mph - N/A   Overcast
7:53 AM 46.9 °F - 46.0 °F 97% 29.56 in 3.0 mi SSE 16.1 mph - N/A   Overcast
8:08 AM 48.0 °F - 46.0 °F 93% 29.55 in 3.0 mi SSE 15.0 mph - N/A   Overcast
8:19 AM 48.0 °F - 46.9 °F 96% 29.54 in 2.5 mi SE 16.1 mph - N/A   Overcast
8:53 AM 48.0 °F - 46.9 °F 96% 29.54 in 2.0 mi SE 15.0 mph - N/A   Overcast
9:11 AM 48.9 °F - 48.0 °F 97% 29.52 in 2.0 mi SE 13.8 mph - N/A   Overcast
9:50 AM 50.0 °F - 48.2 °F 94% 29.50 in 3.0 mi SE 12.7 mph - N/A   Overcast
9:53 AM 50.0 °F - 48.9 °F 96% 29.51 in 3.0 mi SE 13.8 mph - N/A   Overcast
10:03 AM 50.0 °F - 48.9 °F 96% 29.49 in 4.0 mi SE 17.3 mph - N/A   Overcast
10:25 AM 51.1 °F - 50.0 °F 96% 29.49 in 5.0 mi SE 12.7 mph - N/A   Overcast
10:53 AM 53.1 °F - 51.1 °F 93% 29.47 in 7.0 mi SE 16.1 mph - N/A   Overcast
11:53 AM 55.9 °F - 52.0 °F 87% 29.42 in 9.0 mi SSE 18.4 mph 25.3 mph N/A   Overcast
12:30 PM 59.0 °F - 53.1 °F 81% 29.40 in 10.0 mi South 16.1 mph - N/A   Overcast
12:53 PM 60.1 °F - 55.0 °F 83% 29.37 in 10.0 mi South 17.3 mph 25.3 mph 0.00 in Rain Light Rain
1:53 PM 63.0 °F - 55.9 °F 78% 29.34 in 10.0 mi South 20.7 mph - 0.00 in Rain Light Rain
2:53 PM 60.1 °F - 55.9 °F 86% 29.33 in 10.0 mi SSW 12.7 mph - 0.02 in Rain Light Rain
3:53 PM 63.0 °F - 55.9 °F 78% 29.32 in 10.0 mi South 17.3 mph - 0.00 in   Mostly Cloudy
4:53 PM 62.1 °F - 55.9 °F 80% 29.34 in 10.0 mi South 19.6 mph 27.6 mph 0.00 in   Mostly Cloudy
5:53 PM 60.1 °F - 55.0 °F 83% 29.36 in 10.0 mi South 16.1 mph - N/A   Clear
6:53 PM 59.0 °F - 54.0 °F 83% 29.39 in 10.0 mi South 15.0 mph - N/A   Clear
7:53 PM 60.1 °F - 55.0 °F 83% 29.41 in 10.0 mi SSW 12.7 mph - N/A   Clear
8:53 PM 54.0 °F - 51.1 °F 90% 29.44 in 10.0 mi WSW 8.1 mph - N/A   Scattered Clouds
9:53 PM 48.9 °F - 46.9 °F 93% 29.44 in 10.0 mi West 8.1 mph - N/A   Clear
10:53 PM 50.0 °F - 43.0 °F 77% 29.42 in 10.0 mi West 5.8 mph - N/A   Clear
11:53 PM 48.0 °F - 48.0 °F 100% 29.43 in 3.0 mi SSW 5.8 mph - N/A   Clear
11:59 PM 46.9 °F - 46.0 °F 97% 29.42 in 1.8 mi SSW 4.6 mph - N/A   Partly Cloudy